AIQ3923 VTBD-VTCL

Flight info

Callsign AIQ3923
Flight time 0h 54m
Altitude 32000
Route OLVUK3C OLVUK Y26 BEBUV Y33 IBIRI IBIRI1A
Aircraft A320/M-SDE3FGHIRWY/LB1

Departure

Time 2026-05-05 06:32
Airport Don Mueang International Airport (VTBD)

Arrival

Time 2026-05-05 07:27
Airport Lampang Airport (VTCL)
Time Latitude Longitude Altitude Speed Heading
2026-05-05 06:18 13.91787 100.60328 17 ft 0 kts 28°
2026-05-05 06:20 13.91786 100.60328 17 ft 1 kts 28°
2026-05-05 06:21 13.91771 100.60319 17 ft 3 kts 27°
2026-05-05 06:21 13.91753 100.60310 18 ft 3 kts 21°
2026-05-05 06:21 13.91734 100.60304 18 ft 3 kts
2026-05-05 06:21 13.91716 100.60304 18 ft 3 kts 326°
2026-05-05 06:22 13.91708 100.60314 17 ft 2 kts 298°
2026-05-05 06:22 13.91698 100.60332 17 ft 3 kts 298°
2026-05-05 06:22 13.91688 100.60350 20 ft 3 kts 298°
2026-05-05 06:22 13.91679 100.60369 18 ft 3 kts 298°
2026-05-05 06:23 13.91669 100.60387 21 ft 2 kts 298°
2026-05-05 06:23 13.91664 100.60397 17 ft 2 kts 304°
2026-05-05 06:23 13.91653 100.60408 19 ft 3 kts 354°
2026-05-05 06:23 13.91636 100.60406 17 ft 2 kts 27°
2026-05-05 06:24 13.91625 100.60400 17 ft 3 kts 28°
2026-05-05 06:24 13.91608 100.60391 18 ft 2 kts 29°
2026-05-05 06:24 13.91604 100.60388 18 ft 0 kts 29°
2026-05-05 06:26 13.91607 100.60390 18 ft 3 kts 29°
2026-05-05 06:26 13.91633 100.60428 17 ft 10 kts 92°
2026-05-05 06:26 13.91652 100.60499 18 ft 11 kts 40°
2026-05-05 06:27 13.91725 100.60540 18 ft 13 kts 28°
2026-05-05 06:27 13.91895 100.60636 17 ft 15 kts 29°
2026-05-05 06:27 13.91991 100.60690 18 ft 16 kts 28°
2026-05-05 06:28 13.92096 100.60748 18 ft 18 kts 28°
2026-05-05 06:28 13.92209 100.60812 18 ft 19 kts 28°
2026-05-05 06:28 13.92328 100.60879 18 ft 20 kts 28°
2026-05-05 06:28 13.92457 100.60951 17 ft 22 kts 28°
2026-05-05 06:29 13.92584 100.61022 17 ft 17 kts 28°
2026-05-05 06:29 13.92648 100.61091 17 ft 14 kts 97°
2026-05-05 06:29 13.92599 100.61188 18 ft 16 kts 120°
2026-05-05 06:29 13.92542 100.61295 18 ft 18 kts 119°
2026-05-05 06:30 13.92480 100.61409 16 ft 19 kts 118°
2026-05-05 06:30 13.92427 100.61508 14 ft 12 kts 118°
2026-05-05 06:30 13.92384 100.61515 14 ft 0 kts 208°
2026-05-05 06:31 13.92339 100.61490 15 ft 29 kts 209°
2026-05-05 06:31 13.91934 100.61263 20 ft 100 kts 208°
2026-05-05 06:31 13.91149 100.60823 17 ft 154 kts 208°
2026-05-05 06:32 13.90103 100.60259 339 ft 174 kts 208°
2026-05-05 06:32 13.89041 100.59638 1019 ft 175 kts 208°
2026-05-05 06:32 13.87946 100.59030 1528 ft 186 kts 208°
2026-05-05 06:32 13.86964 100.58071 1778 ft 209 kts 245°
2026-05-05 06:33 13.86837 100.56524 2023 ft 233 kts 283°
2026-05-05 06:33 13.87402 100.54894 2362 ft 257 kts 295°
2026-05-05 06:33 13.88226 100.53199 2977 ft 268 kts 298°
2026-05-05 06:33 13.89104 100.51484 3784 ft 273 kts 298°
2026-05-05 06:34 13.89971 100.49736 4637 ft 276 kts 296°
2026-05-05 06:34 13.90811 100.47954 5431 ft 280 kts 295°
2026-05-05 06:34 13.91639 100.46111 6188 ft 285 kts 294°
2026-05-05 06:34 13.92445 100.44255 6937 ft 288 kts 294°
2026-05-05 06:35 13.93252 100.42355 7705 ft 291 kts 294°
2026-05-05 06:35 13.94064 100.40422 8476 ft 295 kts 294°
2026-05-05 06:35 13.94885 100.38467 9218 ft 299 kts 294°
2026-05-05 06:35 13.95699 100.36526 9956 ft 301 kts 294°
2026-05-05 06:36 13.96789 100.34677 10626 ft 304 kts 313°
2026-05-05 06:36 13.98433 100.33305 11292 ft 306 kts 333°
2026-05-05 06:36 14.00448 100.32586 11940 ft 308 kts 352°
2026-05-05 06:36 14.02647 100.32298 12124 ft 329 kts 354°
2026-05-05 06:37 14.04997 100.32030 12380 ft 346 kts 355°
2026-05-05 06:37 14.07388 100.31765 12913 ft 352 kts 354°
2026-05-05 06:37 14.09846 100.31492 13530 ft 356 kts 354°
2026-05-05 06:37 14.12330 100.31213 14093 ft 359 kts 354°
2026-05-05 06:38 14.14827 100.30928 14645 ft 362 kts 354°
2026-05-05 06:38 14.17347 100.30635 15192 ft 365 kts 354°
2026-05-05 06:38 14.19845 100.30340 15742 ft 368 kts 353°
2026-05-05 06:38 14.22403 100.30039 16293 ft 370 kts 353°
2026-05-05 06:39 14.24978 100.29738 16832 ft 373 kts 353°
2026-05-05 06:39 14.27580 100.29433 17361 ft 376 kts 353°
2026-05-05 06:39 14.30190 100.29127 17893 ft 379 kts 353°
2026-05-05 06:39 14.32824 100.28819 18387 ft 381 kts 353°
2026-05-05 06:40 14.35434 100.28513 18836 ft 384 kts 353°
2026-05-05 06:40 14.38109 100.28199 19267 ft 387 kts 353°
2026-05-05 06:40 14.40811 100.27880 19701 ft 389 kts 353°
2026-05-05 06:40 14.43480 100.27565 20134 ft 392 kts 353°
2026-05-05 06:41 14.46207 100.27233 20565 ft 394 kts 351°
2026-05-05 06:41 14.48889 100.26577 20979 ft 396 kts 342°
2026-05-05 06:41 14.51533 100.25722 21389 ft 399 kts 342°
2026-05-05 06:41 14.54173 100.24869 21799 ft 401 kts 342°
2026-05-05 06:42 14.56811 100.24016 22207 ft 404 kts 342°
2026-05-05 06:42 14.59506 100.23146 22614 ft 406 kts 341°
2026-05-05 06:42 14.62212 100.22272 23016 ft 408 kts 341°
2026-05-05 06:42 14.64937 100.21394 23410 ft 411 kts 341°
2026-05-05 06:43 14.67679 100.20506 23731 ft 413 kts 341°
2026-05-05 06:43 14.70391 100.19614 24056 ft 415 kts 341°
2026-05-05 06:43 14.73150 100.18694 24396 ft 416 kts 341°
2026-05-05 06:43 14.75915 100.17765 24724 ft 418 kts 341°
2026-05-05 06:44 14.78700 100.16829 25052 ft 420 kts 341°
2026-05-05 06:44 14.81496 100.15892 25371 ft 422 kts 341°
2026-05-05 06:44 14.84260 100.14972 25679 ft 424 kts 341°
2026-05-05 06:44 14.87084 100.14032 25994 ft 426 kts 341°
2026-05-05 06:45 14.89920 100.13091 26305 ft 428 kts 341°
2026-05-05 06:45 14.92770 100.12145 26610 ft 430 kts 341°
2026-05-05 06:45 14.95598 100.11205 26907 ft 432 kts 341°
2026-05-05 06:45 14.98476 100.10246 27201 ft 434 kts 341°
2026-05-05 06:46 15.01364 100.09282 27487 ft 436 kts 341°
2026-05-05 06:46 15.04266 100.08314 27775 ft 438 kts 341°
2026-05-05 06:46 15.07141 100.07356 28051 ft 440 kts 341°
2026-05-05 06:46 15.10061 100.06382 28329 ft 442 kts 341°
2026-05-05 06:47 15.13000 100.05405 28622 ft 444 kts 341°
2026-05-05 06:47 15.15951 100.04421 28884 ft 446 kts 341°
2026-05-05 06:47 15.18872 100.03449 29156 ft 447 kts 341°
2026-05-05 06:47 15.21858 100.02454 29436 ft 449 kts 341°
2026-05-05 06:48 15.24847 100.01457 29708 ft 451 kts 341°
2026-05-05 06:48 15.27844 100.00454 29941 ft 453 kts 341°
2026-05-05 06:48 15.30853 99.99447 30164 ft 455 kts 341°
2026-05-05 06:48 15.33880 99.98436 30386 ft 456 kts 341°
2026-05-05 06:49 15.36909 99.97424 30607 ft 457 kts 341°
2026-05-05 06:49 15.39914 99.96420 30823 ft 459 kts 341°
2026-05-05 06:49 15.42957 99.95404 31053 ft 460 kts 341°
2026-05-05 06:49 15.46012 99.94386 31325 ft 459 kts 341°
2026-05-05 06:50 15.49053 99.93373 31662 ft 457 kts 341°
2026-05-05 06:50 15.52085 99.92358 31856 ft 457 kts 341°
2026-05-05 06:50 15.55049 99.91364 31899 ft 444 kts 341°
2026-05-05 06:51 15.60831 99.89418 31902 ft 432 kts 341°
2026-05-05 06:51 15.66548 99.87493 31908 ft 431 kts 341°
2026-05-05 06:52 15.72227 99.85587 31903 ft 430 kts 341°
2026-05-05 06:52 15.77937 99.83676 31908 ft 430 kts 341°
2026-05-05 06:53 15.83645 99.81769 31890 ft 430 kts 340°
2026-05-05 06:53 15.89357 99.79847 31897 ft 431 kts 340°
2026-05-05 06:54 15.95035 99.77935 31897 ft 431 kts 340°
2026-05-05 06:54 16.00767 99.76015 31895 ft 431 kts 340°
2026-05-05 06:55 16.06457 99.74101 31901 ft 431 kts 340°
2026-05-05 06:55 16.12134 99.72192 31896 ft 430 kts 340°
2026-05-05 06:56 16.17841 99.70260 31895 ft 430 kts 340°
2026-05-05 06:56 16.23511 99.68346 31896 ft 430 kts 340°
2026-05-05 06:57 16.29226 99.66424 31897 ft 430 kts 340°
2026-05-05 06:57 16.34904 99.64505 31896 ft 430 kts 340°
2026-05-05 06:58 16.40612 99.62575 31893 ft 430 kts 340°
2026-05-05 06:58 16.46315 99.60652 31892 ft 430 kts 340°
2026-05-05 06:59 16.51987 99.58737 31624 ft 421 kts 340°
2026-05-05 06:59 16.54756 99.57801 31390 ft 415 kts 340°
2026-05-05 06:59 16.57471 99.56887 31152 ft 411 kts 340°
2026-05-05 06:59 16.60186 99.55975 30728 ft 408 kts 340°
2026-05-05 07:00 16.62877 99.55071 30256 ft 406 kts 340°
2026-05-05 07:00 16.65563 99.54164 29757 ft 404 kts 340°
2026-05-05 07:00 16.68231 99.53258 29277 ft 400 kts 340°
2026-05-05 07:00 16.70835 99.52373 28827 ft 396 kts 340°
2026-05-05 07:01 16.73449 99.51484 28383 ft 393 kts 340°
2026-05-05 07:01 16.76040 99.50604 27944 ft 389 kts 340°
2026-05-05 07:01 16.78612 99.49730 27501 ft 386 kts 340°
2026-05-05 07:01 16.81157 99.48867 27064 ft 383 kts 340°
2026-05-05 07:02 16.83658 99.48021 26634 ft 380 kts 340°
2026-05-05 07:02 16.86168 99.47171 26187 ft 378 kts 340°
2026-05-05 07:02 16.88674 99.46323 25742 ft 376 kts 340°
2026-05-05 07:02 16.91159 99.45481 25281 ft 375 kts 340°
2026-05-05 07:03 16.93644 99.44636 24823 ft 373 kts 340°
2026-05-05 07:03 16.96109 99.43795 24345 ft 373 kts 340°
2026-05-05 07:03 16.98547 99.42965 23879 ft 373 kts 340°
2026-05-05 07:03 17.01017 99.42125 23378 ft 371 kts 340°
2026-05-05 07:04 17.03439 99.41306 22860 ft 360 kts 340°
2026-05-05 07:04 17.05002 99.40777 22559 ft 351 kts 340°
2026-05-05 07:04 17.07301 99.39999 22122 ft 340 kts 340°
2026-05-05 07:04 17.10242 99.39002 21565 ft 334 kts 340°
2026-05-05 07:05 17.12452 99.38251 21153 ft 333 kts 340°
2026-05-05 07:05 17.14656 99.37503 20731 ft 333 kts 340°
2026-05-05 07:05 17.16121 99.37004 20459 ft 333 kts 340°
2026-05-05 07:05 17.18327 99.36249 20051 ft 333 kts 340°
2026-05-05 07:06 17.20540 99.35494 19630 ft 334 kts 340°
2026-05-05 07:06 17.22755 99.34741 19216 ft 334 kts 340°
2026-05-05 07:06 17.24943 99.33996 18818 ft 335 kts 340°
2026-05-05 07:06 17.27169 99.33237 18402 ft 336 kts 340°
2026-05-05 07:07 17.29398 99.32474 17950 ft 337 kts 340°
2026-05-05 07:07 17.31623 99.31713 17526 ft 336 kts 340°
2026-05-05 07:07 17.33842 99.30956 17118 ft 335 kts 340°
2026-05-05 07:07 17.36037 99.30207 16720 ft 334 kts 340°
2026-05-05 07:08 17.38247 99.29456 16312 ft 334 kts 340°
2026-05-05 07:08 17.40460 99.28703 15914 ft 333 kts 340°
2026-05-05 07:08 17.42671 99.27951 15521 ft 333 kts 341°
2026-05-05 07:08 17.44920 99.27470 15134 ft 336 kts 354°
2026-05-05 07:09 17.47258 99.27589 14735 ft 338 kts
2026-05-05 07:09 17.49559 99.28197 14328 ft 339 kts 13°
2026-05-05 07:09 17.51843 99.28842 13920 ft 340 kts 13°
2026-05-05 07:09 17.54127 99.29485 13490 ft 340 kts 13°
2026-05-05 07:10 17.56383 99.30116 13089 ft 339 kts 13°
2026-05-05 07:10 17.58659 99.30754 12733 ft 335 kts 13°
2026-05-05 07:10 17.60915 99.31384 12313 ft 334 kts 13°
2026-05-05 07:10 17.63154 99.32012 11891 ft 332 kts 13°
2026-05-05 07:11 17.65351 99.32630 11429 ft 321 kts 13°
2026-05-05 07:11 17.67471 99.33227 11030 ft 309 kts 13°
2026-05-05 07:11 17.69503 99.33800 10640 ft 299 kts 13°
2026-05-05 07:11 17.71456 99.34350 10259 ft 289 kts 13°
2026-05-05 07:12 17.73371 99.34889 9921 ft 280 kts 13°
2026-05-05 07:12 17.75229 99.35412 9534 ft 273 kts 13°
2026-05-05 07:12 17.77060 99.35927 9159 ft 271 kts 13°
2026-05-05 07:12 17.78882 99.36439 8792 ft 270 kts 13°
2026-05-05 07:13 17.80699 99.36948 8412 ft 271 kts 13°
2026-05-05 07:13 17.82523 99.37459 8034 ft 271 kts 13°
2026-05-05 07:13 17.84337 99.37968 7645 ft 273 kts 13°
2026-05-05 07:13 17.86177 99.38485 7234 ft 275 kts 12°
2026-05-05 07:14 17.88007 99.39090 6855 ft 277 kts 20°
2026-05-05 07:14 17.89814 99.39860 6580 ft 282 kts 20°
2026-05-05 07:14 17.91639 99.40627 6289 ft 282 kts 19°
2026-05-05 07:14 17.93465 99.41390 5989 ft 281 kts 20°
2026-05-05 07:15 17.95283 99.42148 5696 ft 280 kts 21°
2026-05-05 07:15 17.97099 99.42906 5402 ft 279 kts 21°
2026-05-05 07:15 17.98870 99.43647 5173 ft 273 kts 22°
2026-05-05 07:15 18.00599 99.44370 5024 ft 262 kts 22°
2026-05-05 07:16 18.02265 99.45081 4912 ft 251 kts 27°
2026-05-05 07:16 18.03759 99.46067 4807 ft 256 kts 38°
2026-05-05 07:16 18.05165 99.47163 4520 ft 252 kts 37°
2026-05-05 07:16 18.06564 99.48262 4249 ft 249 kts 37°
2026-05-05 07:17 18.07938 99.49343 3996 ft 244 kts 38°
2026-05-05 07:17 18.09289 99.50406 3743 ft 241 kts 38°
2026-05-05 07:17 18.10710 99.51309 3481 ft 239 kts 21°
2026-05-05 07:17 18.12328 99.51634 3320 ft 235 kts
2026-05-05 07:18 18.13900 99.51520 3264 ft 221 kts 356°
2026-05-05 07:18 18.15408 99.51393 3286 ft 204 kts 357°
2026-05-05 07:18 18.16710 99.51284 3270 ft 178 kts 356°
2026-05-05 07:18 18.17904 99.51184 3269 ft 168 kts 356°
2026-05-05 07:19 18.19042 99.51090 3090 ft 161 kts 357°
2026-05-05 07:19 18.20168 99.50982 2948 ft 173 kts 350°
2026-05-05 07:19 18.21381 99.50604 3432 ft 182 kts 346°
2026-05-05 07:19 18.22628 99.50374 3875 ft 190 kts 352°
2026-05-05 07:20 18.23960 99.49859 3973 ft 217 kts 331°
2026-05-05 07:20 18.25323 99.49004 3961 ft 235 kts 328°
2026-05-05 07:20 18.26704 99.48079 3830 ft 234 kts 328°
2026-05-05 07:20 18.28075 99.47130 3486 ft 236 kts 323°
2026-05-05 07:21 18.29073 99.45806 3187 ft 236 kts 289°
2026-05-05 07:21 18.29489 99.44130 3052 ft 237 kts 278°
2026-05-05 07:21 18.29785 99.42400 2937 ft 244 kts 277°
2026-05-05 07:21 18.29956 99.40583 2819 ft 255 kts 262°
2026-05-05 07:22 18.29348 99.38847 2670 ft 249 kts 231°
2026-05-05 07:22 18.28076 99.37737 2523 ft 236 kts 204°
2026-05-05 07:22 18.26595 99.37100 2399 ft 225 kts 199°
2026-05-05 07:22 18.25106 99.36801 2272 ft 212 kts 176°
2026-05-05 07:23 18.23744 99.37165 2152 ft 196 kts 151°
2026-05-05 07:23 18.22717 99.38055 2075 ft 191 kts 127°
2026-05-05 07:23 18.22142 99.39298 2070 ft 191 kts 102°
2026-05-05 07:23 18.21876 99.40665 2076 ft 191 kts 101°
2026-05-05 07:24 18.21617 99.41993 2073 ft 185 kts 101°
2026-05-05 07:24 18.21358 99.43308 2080 ft 183 kts 101°
2026-05-05 07:24 18.21101 99.44602 2075 ft 175 kts 101°
2026-05-05 07:24 18.20856 99.45843 2084 ft 171 kts 101°
2026-05-05 07:25 18.20632 99.47068 2096 ft 177 kts 95°
2026-05-05 07:25 18.20762 99.48438 2082 ft 189 kts 72°
2026-05-05 07:25 18.21374 99.49572 2090 ft 172 kts 49°
2026-05-05 07:25 18.22301 99.50335 2086 ft 168 kts 28°
2026-05-05 07:26 18.23401 99.50706 1781 ft 170 kts
2026-05-05 07:26 18.24585 99.50659 1263 ft 170 kts 351°
2026-05-05 07:26 18.25718 99.50529 959 ft 157 kts 358°
2026-05-05 07:26 18.26783 99.50444 813 ft 138 kts 355°
2026-05-05 07:27 18.27432 99.50391 797 ft 49 kts 355°
2026-05-05 07:27 18.27590 99.50377 796 ft 16 kts 355°
2026-05-05 07:27 18.27709 99.50366 793 ft 19 kts 357°
2026-05-05 07:27 18.27798 99.50363 790 ft 12 kts
2026-05-05 07:28 18.27839 99.50428 790 ft 7 kts 89°
2026-05-05 07:28 18.27830 99.50461 792 ft 3 kts 86°
2026-05-05 07:28 18.27830 99.50462 792 ft 0 kts 85°
2026-05-05 07:28 18.27829 99.50463 792 ft 1 kts 90°
2026-05-05 07:29 18.27830 99.50466 792 ft 0 kts 88°